| DS18B20 | SHTC3 | PZEM-004T | WiFi | ||||||||
|---|---|---|---|---|---|---|---|---|---|---|---|
| ID | Date d/m/Y & Time | data1 สูง | data2 ต่ำ | data3 นอก | temp pcb | hum pcb | Volt | Amp | Watt | rssi | Time |
| 10842 | 09/08/2026 00:24:49 | 30.7  | 30.8  | 27.7  | 31.7  | 68.6  | 226.8  | 0.04  | 4.4  | -76  | 00:24 |
| 10841 | 09/08/2026 00:20:06 | 30.7  | 30.8  | 27.9  | 31.6  | 68.5  | 226.3  | 0.04  | 4.4  | -77  | 00:20 |
| 10840 | 09/08/2026 00:15:23 | 30.7  | 30.9  | 27.7  | 31.6  | 68.4  | 226.8  | 0.04  | 4.4  | -75  | 00:15 |
| 10839 | 09/08/2026 00:10:38 | 30.8  | 30.9  | 27.8  | 31.7  | 68.4  | 226.7  | 0.04  | 4.4  | -76  | 00:10 |
| 10838 | 09/08/2026 00:05:55 | 30.8  | 30.9  | 27.9  | 31.7  | 68.5  | 226.7  | 0.04  | 4.4  | -75  | 00:05 |
| 10837 | 09/08/2026 00:01:12 | 30.8  | 30.9  | 27.7  | 31.7  | 68.4  | 226.3  | 0.04  | 4.4  | -76  | 00:01 |
| 10836 | 08/08/2026 23:56:27 | 30.8  | 31.0  | 28.0  | 31.6  | 68.4  | 226.4  | 0.04  | 4.4  | -74  | 23:56 |
| 10835 | 08/08/2026 23:51:44 | 30.9  | 31.0  | 28.1  | 31.8  | 68.5  | 226.0  | 0.04  | 4.4  | -76  | 23:51 |
| 10834 | 08/08/2026 23:47:01 | 30.9  | 31.0  | 28.0  | 31.8  | 68.3  | 224.2  | 0.04  | 4.4  | -72  | 23:47 |
| 10833 | 08/08/2026 23:42:18 | 30.9  | 31.1  | 28.3  | 31.8  | 68.4  | 226.0  | 0.04  | 4.4  | -75  | 23:42 |
| 10832 | 08/08/2026 23:37:35 | 30.9  | 31.1  | 28.2  | 31.8  | 68.4  | 223.9  | 0.04  | 4.4  | -77  | 23:37 |
| 10831 | 08/08/2026 23:32:51 | 31.0  | 31.1  | 28.2  | 31.8  | 68.3  | 226.1  | 0.04  | 4.4  | -76  | 23:32 |
| 10830 | 08/08/2026 23:28:08 | 31.0  | 31.1  | 28.1  | 31.8  | 68.4  | 224.7  | 0.04  | 4.4  | -76  | 23:28 |
| 10829 | 08/08/2026 23:23:25 | 31.0  | 31.1  | 28.2  | 32.1  | 68.5  | 223.6  | 0.04  | 4.4  | -76  | 23:23 |
| 10828 | 08/08/2026 23:18:41 | 31.1  | 31.2  | 28.4  | 32.1  | 68.4  | 225.2  | 0.04  | 4.6  | -76  | 23:18 |
| 10827 | 08/08/2026 23:13:58 | 31.1  | 31.2  | 28.5  | 32.1  | 68.3  | 223.4  | 0.04  | 4.4  | -77  | 23:13 |
| 10826 | 08/08/2026 23:09:14 | 31.1  | 31.2  | 28.5  | 32.1  | 68.3  | 226.1  | 0.04  | 4.6  | -76  | 23:09 |
| 10825 | 08/08/2026 23:04:32 | 31.1  | 31.2  | 28.5  | 32.2  | 68.3  | 223.3  | 0.04  | 4.6  | -78  | 23:04 |
| 10824 | 08/08/2026 22:59:49 | 31.2  | 31.3  | 28.3  | 32.0  | 68.4  | 225.8  | 0.04  | 4.6  | -74  | 22:59 |
| 10823 | 08/08/2026 22:55:04 | 31.2  | 31.3  | 28.4  | 32.3  | 68.3  | 229.4  | 0.04  | 4.6  | -77  | 22:55 |
| 10822 | 08/08/2026 22:50:21 | 31.2  | 31.3  | 28.4  | 32.1  | 68.3  | 225.4  | 0.04  | 4.6  | -75  | 22:50 |
| 10821 | 08/08/2026 22:45:38 | 31.2  | 31.4  | 28.5  | 32.2  | 68.2  | 225.4  | 0.04  | 4.4  | -76  | 22:45 |
| 10820 | 08/08/2026 22:40:55 | 31.2  | 31.4  | 28.4  | 32.3  | 68.3  | 228.3  | 0.04  | 4.6  | -76  | 22:40 |
| 10819 | 08/08/2026 22:36:12 | 31.3  | 31.4  | 28.4  | 32.4  | 68.2  | 226.6  | 0.04  | 4.6  | -76  | 22:36 |